Time,TemperatureF,DewpointF,PressureIn,WindDirection,WindDirectionDegrees,WindSpeedMPH,WindSpeedGustMPH,Humidity,HourlyPrecipIn,Conditions,Clouds,dailyrainin,SoftwareType,DateUTC
2013-01-16 00:02:00,20.0,15.0,30.11,WNW,295,0.0,1.0,80,-99.99,,,-99.99,,2013-01-16 06:02:00,
2013-01-16 00:12:00,19.0,14.0,30.10,NW,325,3.0,4.0,80,-99.99,,,-99.99,,2013-01-16 06:12:00,
2013-01-16 00:22:00,19.0,14.0,30.10,NW,325,3.0,4.0,80,-99.99,,,-99.99,,2013-01-16 06:22:00,
2013-01-16 00:32:00,18.0,14.0,30.11,NNW,330,2.0,3.0,82,-99.99,,,-99.99,,2013-01-16 06:32:00,
2013-01-16 00:43:00,19.0,15.0,30.10,North,350,0.0,2.0,82,-99.99,,,-99.99,,2013-01-16 06:43:00,
2013-01-16 00:52:00,19.0,15.0,30.10,North,350,0.0,2.0,82,-99.99,,,-99.99,,2013-01-16 06:52:00,
2013-01-16 01:02:00,18.0,14.0,30.11,NW,305,5.0,6.0,83,-99.99,,,-99.99,,2013-01-16 07:02:00,
2013-01-16 01:12:00,18.0,14.0,30.11,NW,305,3.0,6.0,84,-99.99,,,-99.99,,2013-01-16 07:12:00,
2013-01-16 01:22:00,18.0,14.0,30.11,NW,305,3.0,6.0,84,-99.99,,,-99.99,,2013-01-16 07:22:00,
2013-01-16 01:33:00,18.0,14.0,30.10,South,185,0.0,1.0,83,-99.99,,,-99.99,,2013-01-16 07:33:00,
2013-01-16 01:42:00,19.0,15.0,30.11,SW,220,0.0,1.0,83,-99.99,,,-99.99,,2013-01-16 07:42:00,
2013-01-16 01:52:00,19.0,15.0,30.11,SW,220,0.0,1.0,83,-99.99,,,-99.99,,2013-01-16 07:52:00,
2013-01-16 02:02:00,19.0,15.0,30.11,WNW,290,2.0,3.0,83,-99.99,,,-99.99,,2013-01-16 08:02:00,
2013-01-16 02:12:00,19.0,15.0,30.10,WNW,295,3.0,4.0,83,-99.99,,,-99.99,,2013-01-16 08:12:00,
2013-01-16 02:22:00,19.0,15.0,30.10,WNW,295,3.0,4.0,83,-99.99,,,-99.99,,2013-01-16 08:22:00,
2013-01-16 02:32:00,17.0,12.0,30.10,NNW,345,0.0,3.0,81,-99.99,,,-99.99,,2013-01-16 08:32:00,
2013-01-16 02:42:00,18.0,14.0,30.11,NW,305,3.0,3.0,83,-99.99,,,-99.99,,2013-01-16 08:42:00,
2013-01-16 02:52:00,18.0,14.0,30.11,NW,305,3.0,3.0,83,-99.99,,,-99.99,,2013-01-16 08:52:00,
2013-01-16 03:02:00,17.0,12.0,30.11,NW,305,4.0,5.0,82,-99.99,,,-99.99,,2013-01-16 09:02:00,
2013-01-16 03:12:00,17.0,13.0,30.11,WNW,295,2.0,5.0,83,-99.99,,,-99.99,,2013-01-16 09:12:00,
2013-01-16 03:22:00,17.0,13.0,30.11,WNW,295,2.0,5.0,83,-99.99,,,-99.99,,2013-01-16 09:22:00,
2013-01-16 03:32:00,16.0,12.0,30.10,NW,305,1.0,3.0,82,-99.99,,,-99.99,,2013-01-16 09:32:00,
2013-01-16 03:42:00,17.0,13.0,30.10,NW,315,3.0,4.0,83,-99.99,,,-99.99,,2013-01-16 09:42:00,
2013-01-16 03:52:00,17.0,13.0,30.10,NW,315,3.0,4.0,83,-99.99,,,-99.99,,2013-01-16 09:52:00,
2013-01-16 04:02:00,17.0,13.0,30.10,NW,305,3.0,4.0,83,-99.99,,,-99.99,,2013-01-16 10:02:00,
2013-01-16 04:12:00,17.0,13.0,30.10,WNW,285,1.0,3.0,83,-99.99,,,-99.99,,2013-01-16 10:12:00,
2013-01-16 04:22:00,17.0,13.0,30.10,WNW,285,1.0,3.0,83,-99.99,,,-99.99,,2013-01-16 10:22:00,
2013-01-16 04:32:00,17.0,13.0,30.09,WSW,255,0.0,2.0,82,-99.99,,,-99.99,,2013-01-16 10:32:00,
2013-01-16 04:42:00,17.0,13.0,30.09,SSW,195,0.0,0.0,82,-99.99,,,-99.99,,2013-01-16 10:42:00,
2013-01-16 04:52:00,17.0,13.0,30.09,SSW,195,0.0,0.0,82,-99.99,,,-99.99,,2013-01-16 10:52:00,
2013-01-16 05:02:00,15.0,10.0,30.08,West,270,0.0,2.0,78,-99.99,,,-99.99,,2013-01-16 11:02:00,
2013-01-16 05:12:00,16.0,12.0,30.08,SE,135,3.0,4.0,81,-99.99,,,-99.99,,2013-01-16 11:12:00,
2013-01-16 05:22:00,16.0,12.0,30.08,SE,135,3.0,4.0,81,-99.99,,,-99.99,,2013-01-16 11:22:00,
2013-01-16 05:33:00,18.0,13.0,30.08,SSW,205,1.0,2.0,81,-99.99,,,-99.99,,2013-01-16 11:33:00,
2013-01-16 05:42:00,17.0,12.0,30.08,SSE,150,2.0,3.0,80,-99.99,,,-99.99,,2013-01-16 11:42:00,
2013-01-16 05:52:00,17.0,12.0,30.08,SSE,150,2.0,3.0,80,-99.99,,,-99.99,,2013-01-16 11:52:00,
2013-01-16 06:03:00,17.0,12.0,30.07,SE,130,2.0,2.0,80,-99.99,,,-99.99,,2013-01-16 12:03:00,
2013-01-16 06:13:00,17.0,12.0,30.08,SSE,165,3.0,4.0,80,-99.99,,,-99.99,,2013-01-16 12:13:00,
2013-01-16 06:22:00,17.0,12.0,30.08,SSE,165,3.0,4.0,80,-99.99,,,-99.99,,2013-01-16 12:22:00,
2013-01-16 06:33:00,17.0,12.0,30.08,SSE,150,5.0,8.0,80,-99.99,,,-99.99,,2013-01-16 12:33:00,
2013-01-16 06:43:00,17.0,11.0,30.08,SE,145,5.0,6.0,79,-99.99,,,-99.99,,2013-01-16 12:43:00,
2013-01-16 06:53:00,17.0,11.0,30.08,SE,145,5.0,6.0,79,-99.99,,,-99.99,,2013-01-16 12:53:00,
2013-01-16 07:03:00,17.0,12.0,30.08,South,170,1.0,2.0,81,-99.99,,,-99.99,,2013-01-16 13:03:00,
2013-01-16 07:12:00,17.0,12.0,30.09,WSW,250,1.0,2.0,79,-99.99,,,-99.99,,2013-01-16 13:12:00,
2013-01-16 07:22:00,17.0,12.0,30.09,WSW,250,1.0,2.0,79,-99.99,,,-99.99,,2013-01-16 13:22:00,
2013-01-16 07:33:00,17.0,12.0,30.09,SSE,160,2.0,4.0,79,-99.99,,,-99.99,,2013-01-16 13:33:00,
2013-01-16 07:43:00,17.0,12.0,30.09,SSE,150,1.0,3.0,79,-99.99,,,-99.99,,2013-01-16 13:43:00,
2013-01-16 07:52:00,17.0,12.0,30.09,SSE,150,1.0,3.0,79,-99.99,,,-99.99,,2013-01-16 13:52:00,
2013-01-16 08:03:00,17.0,12.0,30.09,South,175,0.0,2.0,79,-99.99,,,-99.99,,2013-01-16 14:03:00,
2013-01-16 08:12:00,18.0,12.0,30.09,NW,325,1.0,3.0,78,-99.99,,,-99.99,,2013-01-16 14:12:00,
2013-01-16 08:23:00,18.0,12.0,30.09,NW,325,1.0,3.0,78,-99.99,,,-99.99,,2013-01-16 14:23:00,
2013-01-16 08:33:00,18.0,13.0,30.09,South,170,3.0,5.0,78,-99.99,,,-99.99,,2013-01-16 14:33:00,
2013-01-16 08:43:00,18.0,13.0,30.09,SE,145,3.0,7.0,78,-99.99,,,-99.99,,2013-01-16 14:43:00,
2013-01-16 08:53:00,18.0,13.0,30.09,SE,145,3.0,7.0,78,-99.99,,,-99.99,,2013-01-16 14:53:00,
2013-01-16 09:00:00,24.0,16.0,30.10,South,190,2.0,5.0,70,-99.99,,,-99.99,,2013-01-16 15:00:00,
2013-01-16 09:03:00,20.0,14.0,30.09,SSE,160,3.0,6.0,77,-99.99,,,-99.99,,2013-01-16 15:03:00,
2013-01-16 09:12:00,22.0,16.0,30.09,South,170,1.0,5.0,77,-99.99,,,-99.99,,2013-01-16 15:12:00,
2013-01-16 09:23:00,22.0,16.0,30.09,South,170,1.0,5.0,77,-99.99,,,-99.99,,2013-01-16 15:23:00,
2013-01-16 09:33:00,23.0,16.0,30.10,SW,215,2.0,5.0,73,-99.99,,,-99.99,,2013-01-16 15:33:00,
2013-01-16 09:43:00,24.0,16.0,30.10,South,190,2.0,5.0,70,-99.99,,,-99.99,,2013-01-16 15:43:00,
2013-01-16 09:52:00,24.0,16.0,30.10,South,190,2.0,5.0,70,-99.99,,,-99.99,,2013-01-16 15:52:00,
2013-01-16 10:00:00,29.0,16.0,30.10,SSW,205,3.0,7.0,57,-99.99,,,-99.99,,2013-01-16 16:00:00,
2013-01-16 10:12:00,26.0,15.0,30.10,South,185,4.0,6.0,63,-99.99,,,-99.99,,2013-01-16 16:12:00,
2013-01-16 10:22:00,26.0,15.0,30.10,South,185,4.0,6.0,63,-99.99,,,-99.99,,2013-01-16 16:22:00,
2013-01-16 10:33:00,28.0,16.0,30.10,SSW,210,3.0,7.0,59,-99.99,,,-99.99,,2013-01-16 16:33:00,
2013-01-16 10:42:00,29.0,16.0,30.10,SSW,205,3.0,7.0,57,-99.99,,,-99.99,,2013-01-16 16:42:00,
2013-01-16 10:52:00,29.0,16.0,30.10,SSW,205,3.0,7.0,57,-99.99,,,-99.99,,2013-01-16 16:52:00,
2013-01-16 11:12:00,31.0,14.0,30.10,SSW,205,6.0,9.0,49,-99.99,,,-99.99,,2013-01-16 17:12:00,
2013-01-16 11:23:00,31.0,14.0,30.10,SSW,205,6.0,9.0,49,-99.99,,,-99.99,,2013-01-16 17:23:00,
2013-01-16 11:33:00,32.0,14.0,30.09,South,185,5.0,10.0,46,-99.99,,,-99.99,,2013-01-16 17:33:00,
2013-01-16 11:43:00,33.0,15.0,30.09,SW,235,7.0,10.0,47,-99.99,,,-99.99,,2013-01-16 17:43:00,
2013-01-16 11:53:00,33.0,15.0,30.09,SW,235,7.0,10.0,47,-99.99,,,-99.99,,2013-01-16 17:53:00,
2013-01-16 12:03:00,35.0,18.0,30.09,WSW,245,4.0,12.0,49,-99.99,,,-99.99,,2013-01-16 18:03:00,
2013-01-16 12:13:00,35.0,16.0,30.09,SSW,210,4.0,12.0,45,-99.99,,,-99.99,,2013-01-16 18:13:00,
2013-01-16 12:23:00,35.0,16.0,30.09,SSW,210,4.0,12.0,45,-99.99,,,-99.99,,2013-01-16 18:23:00,
2013-01-16 12:33:00,36.0,18.0,30.08,West,275,8.0,15.0,48,-99.99,,,-99.99,,2013-01-16 18:33:00,
2013-01-16 12:42:00,36.0,18.0,30.07,West,275,11.0,15.0,48,-99.99,,,-99.99,,2013-01-16 18:42:00,
2013-01-16 12:53:00,36.0,18.0,30.07,West,275,11.0,15.0,48,-99.99,,,-99.99,,2013-01-16 18:53:00,
2013-01-16 13:03:00,36.0,17.0,30.06,West,275,12.0,18.0,46,-99.99,,,-99.99,,2013-01-16 19:03:00,
2013-01-16 13:12:00,38.0,19.0,30.06,WSW,255,9.0,16.0,47,-99.99,,,-99.99,,2013-01-16 19:12:00,
2013-01-16 13:23:00,38.0,19.0,30.06,WSW,255,9.0,16.0,47,-99.99,,,-99.99,,2013-01-16 19:23:00,
2013-01-16 13:33:00,37.0,18.0,30.06,SW,235,12.0,17.0,46,-99.99,,,-99.99,,2013-01-16 19:33:00,
2013-01-16 13:43:00,38.0,17.0,30.05,SW,235,9.0,18.0,43,-99.99,,,-99.99,,2013-01-16 19:43:00,
2013-01-16 13:52:00,38.0,17.0,30.05,SW,235,9.0,18.0,43,-99.99,,,-99.99,,2013-01-16 19:52:00,
2013-01-16 14:03:00,38.0,18.0,30.04,West,265,12.0,17.0,44,-99.99,,,-99.99,,2013-01-16 20:03:00,
2013-01-16 14:12:00,38.0,18.0,30.04,West,270,13.0,19.0,43,-99.99,,,-99.99,,2013-01-16 20:12:00,
2013-01-16 14:23:00,38.0,18.0,30.04,West,270,13.0,19.0,43,-99.99,,,-99.99,,2013-01-16 20:23:00,
2013-01-16 14:33:00,39.0,18.0,30.04,WSW,255,12.0,18.0,43,-99.99,,,-99.99,,2013-01-16 20:33:00,
2013-01-16 14:42:00,39.0,18.0,30.03,West,280,12.0,17.0,42,-99.99,,,-99.99,,2013-01-16 20:42:00,
2013-01-16 14:53:00,39.0,18.0,30.03,West,280,12.0,17.0,42,-99.99,,,-99.99,,2013-01-16 20:53:00,
2013-01-16 15:03:00,39.0,18.0,30.04,WSW,245,9.0,19.0,42,-99.99,,,-99.99,,2013-01-16 21:03:00,
2013-01-16 15:12:00,39.0,19.0,30.04,West,270,11.0,21.0,44,-99.99,,,-99.99,,2013-01-16 21:12:00,
2013-01-16 15:22:00,39.0,19.0,30.04,West,270,11.0,21.0,44,-99.99,,,-99.99,,2013-01-16 21:22:00,
2013-01-16 15:33:00,39.0,16.0,30.03,West,270,11.0,16.0,40,-99.99,,,-99.99,,2013-01-16 21:33:00,
2013-01-16 15:43:00,40.0,18.0,30.03,West,275,7.0,15.0,42,-99.99,,,-99.99,,2013-01-16 21:43:00,
2013-01-16 15:52:00,40.0,18.0,30.03,West,275,7.0,15.0,42,-99.99,,,-99.99,,2013-01-16 21:52:00,
2013-01-16 16:03:00,40.0,19.0,30.04,West,265,7.0,12.0,43,-99.99,,,-99.99,,2013-01-16 22:03:00,
2013-01-16 16:12:00,39.0,18.0,30.04,WSW,255,9.0,14.0,41,-99.99,,,-99.99,,2013-01-16 22:12:00,
2013-01-16 16:23:00,39.0,18.0,30.04,WSW,255,9.0,14.0,41,-99.99,,,-99.99,,2013-01-16 22:23:00,
2013-01-16 16:33:00,39.0,18.0,30.05,WSW,255,9.0,15.0,43,-99.99,,,-99.99,,2013-01-16 22:33:00,
2013-01-16 16:43:00,39.0,16.0,30.05,West,280,11.0,16.0,39,-99.99,,,-99.99,,2013-01-16 22:43:00,
2013-01-16 16:52:00,39.0,16.0,30.05,West,280,11.0,16.0,39,-99.99,,,-99.99,,2013-01-16 22:52:00,
2013-01-16 17:03:00,39.0,19.0,30.04,West,280,6.0,12.0,43,-99.99,,,-99.99,,2013-01-16 23:03:00,
2013-01-16 17:12:00,39.0,19.0,30.05,West,275,8.0,12.0,45,-99.99,,,-99.99,,2013-01-16 23:12:00,
2013-01-16 17:23:00,39.0,19.0,30.05,West,275,8.0,12.0,45,-99.99,,,-99.99,,2013-01-16 23:23:00,
2013-01-16 17:32:00,38.0,19.0,30.06,WSW,250,7.0,11.0,46,-99.99,,,-99.99,,2013-01-16 23:32:00,
2013-01-16 17:42:00,37.0,19.0,30.05,West,265,7.0,12.0,48,-99.99,,,-99.99,,2013-01-16 23:42:00,
2013-01-16 17:52:00,37.0,19.0,30.05,West,265,7.0,12.0,48,-99.99,,,-99.99,,2013-01-16 23:52:00,
2013-01-16 18:02:00,37.0,20.0,30.06,West,260,5.0,9.0,50,-99.99,,,-99.99,,2013-01-17 00:02:00,
2013-01-16 18:12:00,36.0,20.0,30.06,West,260,4.0,7.0,51,-99.99,,,-99.99,,2013-01-17 00:12:00,
2013-01-16 18:22:00,36.0,20.0,30.06,West,260,4.0,7.0,51,-99.99,,,-99.99,,2013-01-17 00:22:00,
2013-01-16 18:32:00,36.0,21.0,30.08,WSW,240,3.0,6.0,52,-99.99,,,-99.99,,2013-01-17 00:32:00,
2013-01-16 18:42:00,36.0,21.0,30.07,SSW,200,2.0,5.0,53,-99.99,,,-99.99,,2013-01-17 00:42:00,
2013-01-16 18:52:00,36.0,21.0,30.07,SSW,200,2.0,5.0,53,-99.99,,,-99.99,,2013-01-17 00:52:00,
2013-01-16 19:02:00,36.0,21.0,30.07,SW,225,3.0,4.0,52,-99.99,,,-99.99,,2013-01-17 01:02:00,
2013-01-16 19:12:00,36.0,20.0,30.07,SSW,200,2.0,4.0,53,-99.99,,,-99.99,,2013-01-17 01:12:00,
2013-01-16 19:22:00,36.0,20.0,30.07,SSW,200,2.0,4.0,53,-99.99,,,-99.99,,2013-01-17 01:22:00,
2013-01-16 19:33:00,35.0,21.0,30.07,WSW,250,3.0,5.0,55,-99.99,,,-99.99,,2013-01-17 01:33:00,
2013-01-16 19:42:00,35.0,21.0,30.07,West,275,5.0,7.0,56,-99.99,,,-99.99,,2013-01-17 01:42:00,
2013-01-16 19:50:00,35.0,20.0,30.08,WSW,240,3.0,6.0,55,-99.99,,,-99.99,,2013-01-17 01:50:00,
2013-01-16 19:52:00,35.0,21.0,30.07,West,275,5.0,7.0,56,-99.99,,,-99.99,,2013-01-17 01:52:00,
2013-01-16 20:02:00,35.0,21.0,30.08,SW,225,3.0,5.0,55,-99.99,,,-99.99,,2013-01-17 02:02:00,
2013-01-16 20:12:00,35.0,21.0,30.08,SSW,205,3.0,6.0,55,-99.99,,,-99.99,,2013-01-17 02:12:00,
2013-01-16 20:22:00,35.0,21.0,30.08,SSW,205,3.0,6.0,55,-99.99,,,-99.99,,2013-01-17 02:22:00,
2013-01-16 20:32:00,35.0,20.0,30.08,WSW,240,3.0,6.0,55,-99.99,,,-99.99,,2013-01-17 02:32:00,
2013-01-16 20:42:00,35.0,20.0,30.08,WSW,240,3.0,6.0,55,-99.99,,,-99.99,,2013-01-17 02:42:00,
2013-01-16 21:03:00,35.0,20.0,30.07,WSW,245,4.0,7.0,54,-99.99,,,-99.99,,2013-01-17 03:03:00,
2013-01-16 21:12:00,35.0,20.0,30.07,SSW,210,4.0,5.0,54,-99.99,,,-99.99,,2013-01-17 03:12:00,
2013-01-16 21:22:00,35.0,20.0,30.07,SSW,210,4.0,5.0,54,-99.99,,,-99.99,,2013-01-17 03:22:00,
2013-01-16 21:32:00,34.0,20.0,30.08,SW,220,3.0,5.0,55,-99.99,,,-99.99,,2013-01-17 03:32:00,
2013-01-16 21:42:00,34.0,20.0,30.08,SW,225,3.0,6.0,55,-99.99,,,-99.99,,2013-01-17 03:42:00,
2013-01-16 21:52:00,34.0,20.0,30.08,SW,225,3.0,6.0,55,-99.99,,,-99.99,,2013-01-17 03:52:00,
2013-01-16 22:02:00,34.0,20.0,30.09,SW,230,3.0,5.0,56,-99.99,,,-99.99,,2013-01-17 04:02:00,
2013-01-16 22:12:00,34.0,20.0,30.09,SW,215,2.0,5.0,56,-99.99,,,-99.99,,2013-01-17 04:12:00,
2013-01-16 22:22:00,34.0,20.0,30.09,SW,215,2.0,5.0,56,-99.99,,,-99.99,,2013-01-17 04:22:00,
2013-01-16 22:32:00,33.0,20.0,30.09,WSW,240,1.0,4.0,57,-99.99,,,-99.99,,2013-01-17 04:32:00,
2013-01-16 22:42:00,33.0,19.0,30.09,SSW,195,2.0,4.0,58,-99.99,,,-99.99,,2013-01-17 04:42:00,
2013-01-16 22:52:00,33.0,19.0,30.09,SSW,195,2.0,4.0,58,-99.99,,,-99.99,,2013-01-17 04:52:00,
2013-01-16 23:04:00,31.0,19.0,30.09,WSW,240,1.0,2.0,61,-99.99,,,-99.99,,2013-01-17 05:04:00,
2013-01-16 23:12:00,31.0,20.0,30.09,SSE,150,1.0,3.0,62,-99.99,,,-99.99,,2013-01-17 05:12:00,
2013-01-16 23:22:00,31.0,20.0,30.09,SSE,150,1.0,3.0,62,-99.99,,,-99.99,,2013-01-17 05:22:00,
2013-01-16 23:33:00,31.0,20.0,30.10,West,260,2.0,2.0,61,-99.99,,,-99.99,,2013-01-17 05:33:00,
2013-01-16 23:42:00,31.0,19.0,30.10,SW,220,1.0,3.0,60,-99.99,,,-99.99,,2013-01-17 05:42:00,
2013-01-16 23:52:00,31.0,19.0,30.10,SW,220,1.0,3.0,60,-99.99,,,-99.99,,2013-01-17 05:52:00,